Météo par heure à Aligarh

Ce jour, 21 Octobre, Mercredi

Heure Température Précipitation Vent Pression Humidité
00:00 +23°C° 0 mm 0 m/s 739 mmHg 20%
01:00 +23°C° 0 mm 0 m/s 739 mmHg 21%
02:00 +22°C° 0 mm 0 m/s 739 mmHg 21%
03:00 +22°C° 0 mm 0 m/s 739 mmHg 21%
04:00 +22°C° 0 mm 0 m/s 740 mmHg 22%
05:00 +21°C° 0 mm 0 m/s 740 mmHg 22%
06:00 +25°C° 0 mm 1 m/s 740 mmHg 21%
07:00 +26°C° 0 mm 1 m/s 741 mmHg 21%
08:00 +27°C° 0 mm 1 m/s 741 mmHg 20%
09:00 +30°C° 0 mm 1 m/s 741 mmHg 17%
10:00 +32°C° 0 mm 1 m/s 741 mmHg 15%
11:00 +35°C° 0 mm 1 m/s 741 mmHg 12%
12:00 +36°C° 0 mm 2 m/s 740 mmHg 12%
13:00 +37°C° 0 mm 2 m/s 739 mmHg 11%
14:00 +38°C° 0 mm 3 m/s 738 mmHg 10%
15:00 +36°C° 0 mm 2 m/s 738 mmHg 13%
16:00 +34°C° 0 mm 2 m/s 738 mmHg 15%
17:00 +31°C° 0 mm 2 m/s 737 mmHg 17%
18:00 +30°C° 0 mm 2 m/s 738 mmHg 17%
19:00 +29°C° 0 mm 2 m/s 738 mmHg 17%
20:00 +28°C° 0 mm 2 m/s 738 mmHg 18%
21:00 +27°C° 0 mm 2 m/s 738 mmHg 18%
22:00 +27°C° 0 mm 1 m/s 738 mmHg 19%
23:00 +26°C° 0 mm 1 m/s 738 mmHg 20%

Demain, 22 Octobre, Jeudi

Heure Température Précipitation Vent Pression Humidité
00:00 +26°C° 0 mm 1 m/s 738 mmHg 20%
01:00 +25°C° 0 mm 1 m/s 738 mmHg 20%
02:00 +25°C° 0 mm 1 m/s 738 mmHg 21%
03:00 +25°C° 0 mm 1 m/s 738 mmHg 21%
04:00 +25°C° 0 mm 1 m/s 738 mmHg 21%
05:00 +25°C° 0 mm 1 m/s 738 mmHg 20%
06:00 +27°C° 0 mm 1 m/s 738 mmHg 20%
07:00 +28°C° 0 mm 1 m/s 739 mmHg 20%
08:00 +29°C° 0 mm 1 m/s 739 mmHg 19%
09:00 +31°C° 0 mm 2 m/s 739 mmHg 18%
10:00 +34°C° 0 mm 2 m/s 739 mmHg 16%
11:00 +36°C° 0 mm 2 m/s 739 mmHg 14%
12:00 +37°C° 0 mm 2 m/s 738 mmHg 13%
13:00 +38°C° 0 mm 2 m/s 737 mmHg 13%
14:00 +37°C° 0 mm 1 m/s 737 mmHg 12%
15:00 +36°C° 0 mm 1 m/s 737 mmHg 14%
16:00 +35°C° 0 mm 2 m/s 736 mmHg 16%
17:00 +32°C° 0 mm 2 m/s 736 mmHg 18%
18:00 +31°C° 0 mm 2 m/s 737 mmHg 20%
19:00 +29°C° 0 mm 1 m/s 737 mmHg 21%
20:00 +28°C° 0 mm 1 m/s 737 mmHg 23%
21:00 +27°C° 0 mm 1 m/s 737 mmHg 24%
22:00 +27°C° 0 mm 1 m/s 738 mmHg 25%
23:00 +26°C° 0 mm 1 m/s 738 mmHg 26%

Après-demain, 23 Octobre, Vendredi

Heure Température Précipitation Vent Pression Humidité
00:00 +26°C° 0 mm 2 m/s 738 mmHg 27%
01:00 +25°C° 0 mm 2 m/s 737 mmHg 28%
02:00 +25°C° 0 mm 2 m/s 737 mmHg 29%
03:00 +24°C° 0 mm 2 m/s 737 mmHg 31%
04:00 +24°C° 0 mm 1 m/s 737 mmHg 32%
05:00 +23°C° 0 mm 1 m/s 737 mmHg 33%
06:00 +24°C° 0 mm 1 m/s 738 mmHg 32%
07:00 +26°C° 0 mm 1 m/s 738 mmHg 31%
08:00 +27°C° 0 mm 1 m/s 739 mmHg 29%
09:00 +29°C° 0 mm 1 m/s 739 mmHg 26%
10:00 +31°C° 0 mm 1 m/s 739 mmHg 23%
11:00 +34°C° 0 mm 1 m/s 739 mmHg 20%
12:00 +35°C° 0 mm 2 m/s 738 mmHg 19%
13:00 +36°C° 0 mm 2 m/s 738 mmHg 17%
14:00 +37°C° 0 mm 2 m/s 737 mmHg 16%
15:00 +35°C° 0 mm 2 m/s 737 mmHg 18%
16:00 +34°C° 0 mm 2 m/s 737 mmHg 21%
17:00 +31°C° 0 mm 2 m/s 737 mmHg 23%
18:00 +30°C° 0 mm 2 m/s 737 mmHg 24%
19:00 +29°C° 0 mm 1 m/s 737 mmHg 25%
20:00 +28°C° 0 mm 1 m/s 738 mmHg 26%
21:00 +28°C° 0 mm 1 m/s 738 mmHg 26%
22:00 +27°C° 0 mm 1 m/s 738 mmHg 27%
23:00 +24°C° 0 mm 0 m/s 738 mmHg 28%

24 Octobre, Samedi

Heure Température Précipitation Vent Pression Humidité
00:00 +24°C° 0 mm 0 m/s 738 mmHg 28%
01:00 +23°C° 0 mm 0 m/s 738 mmHg 29%
02:00 +25°C° 0 mm 1 m/s 738 mmHg 30%
03:00 +25°C° 0 mm 1 m/s 738 mmHg 30%
04:00 +24°C° 0 mm 1 m/s 738 mmHg 31%
05:00 +24°C° 0 mm 1 m/s 738 mmHg 32%
06:00 +25°C° 0 mm 1 m/s 738 mmHg 30%
07:00 +27°C° 0 mm 1 m/s 739 mmHg 28%
08:00 +28°C° 0 mm 1 m/s 740 mmHg 26%
09:00 +30°C° 0 mm 1 m/s 740 mmHg 23%
10:00 +32°C° 0 mm 1 m/s 740 mmHg 19%
11:00 +36°C° 0 mm 2 m/s 740 mmHg 16%
12:00 +36°C° 0 mm 2 m/s 739 mmHg 14%
13:00 +37°C° 0 mm 3 m/s 739 mmHg 12%
14:00 +38°C° 0 mm 3 m/s 738 mmHg 11%
15:00 +36°C° 0 mm 2 m/s 738 mmHg 13%
16:00 +34°C° 0 mm 2 m/s 738 mmHg 15%
17:00 +31°C° 0 mm 2 m/s 738 mmHg 17%
18:00 +30°C° 0 mm 1 m/s 738 mmHg 17%
19:00 +29°C° 0 mm 1 m/s 739 mmHg 18%
20:00 +28°C° 0 mm 1 m/s 739 mmHg 18%
21:00 +27°C° 0 mm 1 m/s 739 mmHg 19%
22:00 +25°C° 0 mm 0 m/s 740 mmHg 20%
23:00 +24°C° 0 mm 0 m/s 740 mmHg 21%

25 Octobre, Dimanche

Heure Température Précipitation Vent Pression Humidité
00:00 +23°C° 0 mm 0 m/s 740 mmHg 22%
01:00 +23°C° 0 mm 0 m/s 740 mmHg 23%
02:00 +22°C° 0 mm 0 m/s 740 mmHg 24%
03:00 +24°C° 0 mm 1 m/s 740 mmHg 24%
04:00 +24°C° 0 mm 1 m/s 740 mmHg 25%
05:00 +23°C° 0 mm 1 m/s 740 mmHg 25%
06:00 +25°C° 0 mm 1 m/s 741 mmHg 24%
07:00 +26°C° 0 mm 1 m/s 741 mmHg 24%
08:00 +27°C° 0 mm 1 m/s 742 mmHg 23%
09:00 +30°C° 0 mm 1 m/s 742 mmHg 20%
10:00 +31°C° 0 mm 0 m/s 742 mmHg 17%
11:00 +33°C° 0 mm 0 m/s 742 mmHg 14%
12:00 +36°C° 0 mm 1 m/s 741 mmHg 12%
13:00 +36°C° 0 mm 1 m/s 741 mmHg 10%
14:00 +38°C° 0 mm 2 m/s 740 mmHg 8%
15:00 +36°C° 0 mm 2 m/s 740 mmHg 10%
16:00 +34°C° 0 mm 2 m/s 740 mmHg 13%
17:00 +31°C° 0 mm 2 m/s 739 mmHg 15%
18:00 +30°C° 0 mm 2 m/s 740 mmHg 17%
19:00 +29°C° 0 mm 2 m/s 740 mmHg 19%
20:00 +27°C° 0 mm 1 m/s 740 mmHg 21%
21:00 +27°C° 0 mm 1 m/s 740 mmHg 22%
22:00 +26°C° 0 mm 1 m/s 741 mmHg 23%
23:00 +26°C° 0 mm 1 m/s 741 mmHg 23%

26 Octobre, Lundi

Heure Température Précipitation Vent Pression Humidité
00:00 +25°C° 0 mm 1 m/s 741 mmHg 24%
01:00 +25°C° 0 mm 1 m/s 741 mmHg 25%
02:00 +24°C° 0 mm 1 m/s 740 mmHg 26%
03:00 +24°C° 0 mm 1 m/s 741 mmHg 26%
04:00 +23°C° 0 mm 1 m/s 741 mmHg 26%
05:00 +23°C° 0 mm 2 m/s 741 mmHg 26%
06:00 +24°C° 0 mm 2 m/s 742 mmHg 26%
07:00 +26°C° 0 mm 2 m/s 742 mmHg 26%
08:00 +27°C° 0 mm 2 m/s 743 mmHg 26%
09:00 +29°C° 0 mm 2 m/s 742 mmHg 22%
10:00 +32°C° 0 mm 1 m/s 742 mmHg 18%
11:00 +35°C° 0 mm 1 m/s 742 mmHg 14%
12:00 +36°C° 0 mm 2 m/s 742 mmHg 15%
13:00 +37°C° 0 mm 2 m/s 741 mmHg 15%
14:00 +37°C° 0 mm 3 m/s 740 mmHg 15%
15:00 +36°C° 0 mm 3 m/s 740 mmHg 17%
16:00 +34°C° 0 mm 3 m/s 740 mmHg 20%
17:00 +31°C° 0 mm 3 m/s 740 mmHg 22%
18:00 +30°C° 0 mm 2 m/s 740 mmHg 22%
19:00 +30°C° 0 mm 2 m/s 740 mmHg 22%
20:00 +29°C° 0 mm 2 m/s 740 mmHg 22%
21:00 +28°C° 0 mm 2 m/s 740 mmHg 23%
22:00 +27°C° 0 mm 2 m/s 740 mmHg 24%
23:00 +27°C° 0 mm 2 m/s 740 mmHg 26%

27 Octobre, Mardi

Heure Température Précipitation Vent Pression Humidité
00:00 +26°C° 0 mm 2 m/s 740 mmHg 27%
01:00 +25°C° 0 mm 2 m/s 740 mmHg 29%
02:00 +25°C° 0 mm 2 m/s 740 mmHg 30%
03:00 +24°C° 0 mm 2 m/s 740 mmHg 30%
04:00 +24°C° 0 mm 1 m/s 740 mmHg 30%
05:00 +23°C° 0 mm 1 m/s 741 mmHg 29%
06:00 +25°C° 0 mm 1 m/s 741 mmHg 28%
07:00 +26°C° 0 mm 1 m/s 742 mmHg 26%
08:00 +27°C° 0 mm 2 m/s 742 mmHg 24%
09:00 +29°C° 0 mm 2 m/s 742 mmHg 21%
10:00 +32°C° 0 mm 2 m/s 742 mmHg 18%
11:00 +35°C° 0 mm 3 m/s 742 mmHg 14%
12:00 +35°C° 0 mm 3 m/s 742 mmHg 14%
13:00 +36°C° 0 mm 4 m/s 741 mmHg 14%
14:00 +36°C° 0 mm 4 m/s 740 mmHg 13%
15:00 +34°C° 0 mm 4 m/s 740 mmHg 16%
16:00 +31°C° 0 mm 3 m/s 740 mmHg 19%
17:00 +29°C° 0 mm 2 m/s 740 mmHg 22%
18:00 +28°C° 0 mm 2 m/s 740 mmHg 22%
19:00 +27°C° 0 mm 2 m/s 741 mmHg 23%
20:00 +26°C° 0 mm 2 m/s 741 mmHg 24%
21:00 +26°C° 0 mm 2 m/s 741 mmHg 24%
22:00 +25°C° 0 mm 1 m/s 741 mmHg 24%
23:00 +25°C° 0 mm 1 m/s 741 mmHg 24%
Voir plus

Nous avons besoin de votre consentement

Meteoprog et ses fournisseurs de services peuvent stocker et accéder à des données personnelles telles que des cookies, des identifiants d'appareils ou d'autres technologies similaires sur votre appareil et traiter ces données pour personnaliser le contenu et les publicités, ainsi que pour fournir des fonctionnalités de médias sociaux et analyser le trafic.

  • Stocker et/ou accéder à des informations sur votre appareil

    Des cookies, des identifiants d'appareils ou d'autres informations peuvent être stockés ou accessibles sur votre appareil aux fins indiquées ci-dessus.

  • Annonces et contenus personnalisés, mesure des annonces et des contenus, connaissance de l'audience et développement de produits

    Les annonces et le contenu peuvent être personnalisés en fonction d'un profil. D'autres données peuvent être ajoutées pour mieux personnaliser les annonces et le contenu. Les performances des publicités et du contenu peuvent être mesurées. Il est possible d'obtenir des informations sur le public qui a vu les publicités et le contenu. Ces données peuvent être utilisées pour développer ou améliorer l'expérience de l'utilisateur, les systèmes et les logiciels.

En cliquant sur "J'accepte", vous autorisez l'utilisation de cookies, des identifiants d'appareils, des balises web ou d'autres technologies similaires. Vos paramètres peuvent être modifiés dans le navigateur de votre appareil.

Dans certains cas, des intérêts légitimes peuvent être invoqués plutôt qu'un consentement. Vous pouvez en savoir plus à ce sujet dans notre Politique de confidentialité et de cookies.